Saginaw, TX

4:12 AM CDT on September 30, 2016 (GMT -0500)
Fort Worth Meacham International

Weather History for KFTW - October, 2012

Change the Weather History Date:

Saturday, October 6, 2012

  Actual Average Record
Temperature  
Mean Temperature 50 °F -  
Max Temperature 55 °F 78 °F 93 °F (2002)
Min Temperature 46 °F 58 °F 45 °F (2001)
Degree Days  
Heating Degree Days 14    
Moisture  
Dew Point 45 °F    
Average Humidity 79    
Maximum Humidity 93    
Minimum Humidity 74    
Precipitation  
Precipitation 0.00 in - - ()
Sea Level Pressure  
Sea Level Pressure 30.17 in    
Wind  
Wind Speed 13 mph (NNE)    
Max Wind Speed 18 mph    
Max Gust Speed 22 mph    
Visibility 10 miles    
Events Rain    
Averages and records for this station are not official NWS values.
T = Trace of Precipitation, MM = Missing Value Source: NWS Daily Summary

Daily Weather History Graph

Daily Weather History Graph

Search for Another Location

Airport or City:

Trip Planner

Search our weather history database for the weather conditions in past years. The results will help you decide how hot, cold, wet, or windy it might be!

Date:

Astronomy

Oct. 06, 2012 Rise Set
Actual Time 7:27 AM CDT 7:06 PM CDT
Civil Twilight 7:02 AM CDT 7:31 PM CDT
Nautical Twilight 6:34 AM CDT 8:00 PM CDT
Astronomical Twilight 6:05 AM CDT 8:28 PM CDT
Moon 11:37 PM CDT (10/6) 1:08 PM CDT (10/6)
Length of Visible Light 12h 28m
Length of Day
11h 39m
Waning Gibbous, 65% of the Moon is Illuminated
Oct 6
Waning Gibbous
Oct 8
Last Quarter
Oct 15
New
Oct 21
First Quarter
Oct 29
Full

Hourly Weather History & Observations

Time (CDT) Temp. Windchill Dew Point Humidity Pressure Visibility Wind Dir Wind Speed Gust Speed Precip Events Conditions
12:53 AM 55.9 °F - 48.9 °F 77% 30.09 in 10.0 mi NNE 13.8 mph - N/A   Overcast
1:53 AM 55.9 °F - 48.9 °F 77% 30.10 in 10.0 mi NNE 13.8 mph - N/A   Overcast
2:53 AM 55.0 °F - 48.0 °F 77% 30.11 in 10.0 mi North 12.7 mph - N/A   Overcast
3:53 AM 54.0 °F - 46.0 °F 75% 30.11 in 10.0 mi North 13.8 mph - N/A   Overcast
4:53 AM 53.1 °F - 45.0 °F 74% 30.12 in 10.0 mi North 10.4 mph - N/A   Overcast
5:53 AM 52.0 °F - 46.0 °F 80% 30.12 in 10.0 mi NNE 18.4 mph 21.9 mph N/A   Overcast
6:29 AM 51.8 °F - 44.6 °F 76% 30.14 in 10.0 mi NNE 12.7 mph - N/A   Overcast
6:53 AM 51.1 °F - 45.0 °F 80% 30.14 in 10.0 mi North 15.0 mph - N/A   Overcast
7:53 AM 51.1 °F - 45.0 °F 80% 30.15 in 10.0 mi NNE 13.8 mph - N/A   Overcast
8:53 AM 51.8 °F - 44.6 °F 76% 30.16 in 10.0 mi NNE 16.1 mph 20.7 mph N/A   Overcast
9:49 AM 51.8 °F - 44.6 °F 76% 30.18 in 10.0 mi NNE 9.2 mph - N/A   Overcast
9:53 AM 51.1 °F - 45.0 °F 80% 30.17 in 10.0 mi North 12.7 mph - N/A   Overcast
10:15 AM 50.0 °F - 44.6 °F 82% 30.18 in 10.0 mi NNE 12.7 mph - N/A   Overcast
10:53 AM 51.1 °F - 45.0 °F 80% 30.18 in 10.0 mi NE 11.5 mph - N/A   Overcast
11:53 AM 50.0 °F - 45.0 °F 83% 30.19 in 10.0 mi NNE 11.5 mph - N/A   Overcast
12:53 PM 51.1 °F - 45.0 °F 80% 30.18 in 10.0 mi NNE 12.7 mph - N/A   Overcast
1:53 PM 52.0 °F - 45.0 °F 77% 30.16 in 10.0 mi North 9.2 mph - N/A   Overcast
2:53 PM 52.0 °F - 44.1 °F 74% 30.14 in 10.0 mi NNE 10.4 mph - N/A   Overcast
3:53 PM 51.1 °F - 45.0 °F 80% 30.14 in 10.0 mi North 10.4 mph - N/A   Overcast
4:53 PM 51.1 °F - 44.1 °F 77% 30.15 in 10.0 mi North 12.7 mph - N/A   Overcast
5:53 PM 51.1 °F - 43.0 °F 74% 30.15 in 10.0 mi North 12.7 mph - N/A   Overcast
6:53 PM 50.0 °F - 44.1 °F 80% 30.18 in 10.0 mi NNE 13.8 mph - N/A   Overcast
7:53 PM 46.9 °F - 45.0 °F 93% 30.19 in 10.0 mi North 15.0 mph 19.6 mph 0.00 in   Overcast
8:35 PM 46.4 °F 40.4 °F 44.6 °F 93% 30.22 in 5.0 mi NNE 13.8 mph - 0.00 in Rain Light Rain
8:53 PM 46.9 °F - 43.0 °F 86% 30.22 in 10.0 mi NNE 13.8 mph - 0.00 in   Overcast
9:53 PM 46.9 °F - 39.0 °F 74% 30.25 in 10.0 mi NNE 15.0 mph - N/A   Overcast
10:53 PM 46.4 °F 40.4 °F 39.2 °F 76% 30.25 in 10.0 mi NNE 13.8 mph 20.7 mph N/A   Overcast
11:53 PM 46.9 °F - 39.0 °F 74% 30.27 in 10.0 mi NNE 11.5 mph - N/A   Overcast